Time,TemperatureF,DewpointF,PressureIn,WindDirection,WindDirectionDegrees,WindSpeedMPH,WindSpeedGustMPH,Humidity,HourlyPrecipIn,Conditions,Clouds,dailyrainin,SoftwareType,DateUTC
2013-09-03 00:01:00,73.2,68.1,29.74,WNW,288,0.0,0.0,84,0.00,,---,0.12,VWS V14.01,2013-09-03 04:01:00,
2013-09-03 00:02:00,73.2,68.1,29.74,WNW,288,0.0,0.0,84,0.00,,---,0.00,VWS V14.01,2013-09-03 04:02:00,
2013-09-03 00:04:00,73.2,68.1,29.74,WNW,288,0.0,0.0,84,0.00,,---,0.00,VWS V14.01,2013-09-03 04:04:00,
2013-09-03 00:09:00,73.1,67.3,29.73,WNW,288,0.0,0.0,82,0.00,,---,0.00,VWS V14.01,2013-09-03 04:09:00,
2013-09-03 00:14:00,73.2,68.1,29.73,WNW,288,0.0,0.0,84,0.00,,---,0.00,VWS V14.01,2013-09-03 04:14:00,
2013-09-03 00:19:00,73.3,67.5,29.72,WNW,288,0.0,0.0,82,0.00,,---,0.00,VWS V14.01,2013-09-03 04:19:00,
2013-09-03 00:24:00,73.3,67.5,29.73,WNW,288,0.0,0.0,82,0.00,,---,0.00,VWS V14.01,2013-09-03 04:24:00,
2013-09-03 00:29:00,73.4,67.9,29.74,WNW,288,0.0,0.0,83,0.00,,---,0.00,VWS V14.01,2013-09-03 04:29:00,
2013-09-03 00:34:00,73.4,67.2,29.74,WNW,288,0.0,0.0,81,0.00,,---,0.00,VWS V14.01,2013-09-03 04:34:00,
2013-09-03 00:39:00,73.5,67.3,29.74,WNW,288,0.0,0.0,81,0.00,,---,0.00,VWS V14.01,2013-09-03 04:39:00,
2013-09-03 00:44:00,73.6,67.4,29.74,NW,304,0.0,0.0,81,0.00,,---,0.00,VWS V14.01,2013-09-03 04:44:00,
2013-09-03 00:49:00,73.9,67.7,29.74,NW,314,0.0,2.0,81,0.00,,---,0.00,VWS V14.01,2013-09-03 04:49:00,
2013-09-03 00:54:00,74.1,68.3,29.73,North,352,0.0,0.0,82,0.00,,---,0.00,VWS V14.01,2013-09-03 04:54:00,
2013-09-03 00:59:00,73.9,68.4,29.73,West,259,0.0,0.0,83,0.00,,---,0.00,VWS V14.01,2013-09-03 04:59:00,
2013-09-03 01:05:00,73.7,68.2,29.73,NW,319,0.0,0.0,83,0.00,,---,0.00,VWS V14.01,2013-09-03 05:05:00,
2013-09-03 01:10:00,73.5,68.7,29.73,NW,315,0.0,0.0,85,0.00,,---,0.00,VWS V14.01,2013-09-03 05:10:00,
2013-09-03 01:15:00,73.1,68.3,29.73,NW,314,0.0,0.0,85,0.00,,---,0.00,VWS V14.01,2013-09-03 05:15:00,
2013-09-03 01:20:00,72.7,67.2,29.73,NNW,330,0.0,2.0,83,0.00,,---,0.00,VWS V14.01,2013-09-03 05:20:00,
2013-09-03 01:25:00,72.9,66.7,29.73,NNW,330,0.0,1.0,81,0.00,,---,0.00,VWS V14.01,2013-09-03 05:25:00,
2013-09-03 01:30:00,73.0,66.8,29.74,NW,307,0.0,0.0,81,0.00,,---,0.00,VWS V14.01,2013-09-03 05:30:00,
2013-09-03 01:35:00,72.9,67.1,29.74,NNW,341,2.0,2.0,82,0.00,,---,0.00,VWS V14.01,2013-09-03 05:35:00,
2013-09-03 01:40:00,72.7,66.9,29.74,NW,309,0.0,0.0,82,0.00,,---,0.00,VWS V14.01,2013-09-03 05:40:00,
2013-09-03 01:45:00,72.6,67.2,29.74,WNW,288,0.0,1.0,83,0.00,,---,0.00,VWS V14.01,2013-09-03 05:45:00,
2013-09-03 01:50:00,72.4,66.9,29.74,NW,307,0.0,1.0,83,0.00,,---,0.00,VWS V14.01,2013-09-03 05:50:00,
2013-09-03 01:55:00,72.0,66.9,29.74,WNW,296,0.0,0.0,84,0.00,,---,0.00,VWS V14.01,2013-09-03 05:55:00,
2013-09-03 02:00:00,71.8,66.7,29.74,WNW,300,0.0,0.0,84,0.00,,---,0.00,VWS V14.01,2013-09-03 06:00:00,
2013-09-03 02:05:00,71.5,66.4,29.74,NW,308,0.0,0.0,84,0.00,,---,0.00,VWS V14.01,2013-09-03 06:05:00,
2013-09-03 02:11:00,71.3,66.2,29.74,NW,322,0.0,0.0,84,0.00,,---,0.00,VWS V14.01,2013-09-03 06:11:00,
2013-09-03 02:16:00,71.1,66.4,29.74,West,281,0.0,0.0,85,0.00,,---,0.00,VWS V14.01,2013-09-03 06:16:00,
2013-09-03 02:21:00,70.9,66.2,29.74,WNW,298,0.0,1.0,85,0.00,,---,0.00,VWS V14.01,2013-09-03 06:21:00,
2013-09-03 02:26:00,70.7,66.0,29.74,WNW,283,0.0,0.0,85,0.00,,---,0.00,VWS V14.01,2013-09-03 06:26:00,
2013-09-03 02:31:00,70.5,65.8,29.74,West,268,0.0,1.0,85,0.00,,---,0.00,VWS V14.01,2013-09-03 06:31:00,
2013-09-03 02:36:00,70.5,65.8,29.74,NW,307,0.0,1.0,85,0.00,,---,0.00,VWS V14.01,2013-09-03 06:36:00,
2013-09-03 02:41:00,70.4,66.0,29.74,WNW,290,0.0,1.0,86,0.00,,---,0.00,VWS V14.01,2013-09-03 06:41:00,
2013-09-03 02:46:00,70.3,65.9,29.74,WNW,301,0.0,1.0,86,0.00,,---,0.00,VWS V14.01,2013-09-03 06:46:00,
2013-09-03 02:51:00,70.3,65.9,29.74,WNW,301,0.0,0.0,86,0.00,,---,0.00,VWS V14.01,2013-09-03 06:51:00,
2013-09-03 02:56:00,70.1,65.7,29.75,NW,322,0.0,3.0,86,0.00,,---,0.00,VWS V14.01,2013-09-03 06:56:00,
2013-09-03 03:01:00,70.1,65.7,29.75,WNW,284,0.0,0.0,86,0.00,,---,0.00,VWS V14.01,2013-09-03 07:01:00,
2013-09-03 03:06:00,70.0,66.0,29.75,NNW,330,0.0,0.0,87,0.00,,---,0.00,VWS V14.01,2013-09-03 07:06:00,
2013-09-03 03:11:00,69.9,65.9,29.75,NNW,332,0.0,0.0,87,0.00,,---,0.00,VWS V14.01,2013-09-03 07:11:00,
2013-09-03 03:16:00,69.7,65.7,29.75,NNW,332,0.0,0.0,87,0.00,,---,0.00,VWS V14.01,2013-09-03 07:16:00,
2013-09-03 03:21:00,69.6,65.6,29.75,NW,307,0.0,0.0,87,0.00,,---,0.00,VWS V14.01,2013-09-03 07:21:00,
2013-09-03 03:27:00,69.5,65.8,29.75,West,281,0.0,1.0,88,0.00,,---,0.00,VWS V14.01,2013-09-03 07:27:00,
2013-09-03 03:32:00,69.4,65.7,29.75,NW,307,0.0,0.0,88,0.00,,---,0.00,VWS V14.01,2013-09-03 07:32:00,
2013-09-03 03:37:00,69.4,65.7,29.75,NW,305,0.0,0.0,88,0.00,,---,0.00,VWS V14.01,2013-09-03 07:37:00,
2013-09-03 03:42:00,69.3,65.6,29.75,WNW,284,0.0,1.0,88,0.00,,---,0.00,VWS V14.01,2013-09-03 07:42:00,
2013-09-03 03:47:00,69.2,65.5,29.75,WNW,284,0.0,0.0,88,0.00,,---,0.00,VWS V14.01,2013-09-03 07:47:00,
2013-09-03 03:52:00,69.2,65.8,29.75,WNW,285,0.0,1.0,89,0.00,,---,0.00,VWS V14.01,2013-09-03 07:52:00,
2013-09-03 03:57:00,69.1,65.7,29.75,West,271,0.0,1.0,89,0.00,,---,0.00,VWS V14.01,2013-09-03 07:57:00,
2013-09-03 04:02:00,69.2,65.8,29.75,WSW,250,0.0,0.0,89,0.00,,---,0.00,VWS V14.01,2013-09-03 08:02:00,
2013-09-03 04:07:00,69.3,65.9,29.75,WSW,252,0.0,1.0,89,0.00,,---,0.00,VWS V14.01,2013-09-03 08:07:00,
2013-09-03 04:12:00,69.2,65.8,29.75,West,270,0.0,0.0,89,0.00,,---,0.00,VWS V14.01,2013-09-03 08:12:00,
2013-09-03 04:17:00,69.2,65.8,29.75,West,267,0.0,0.0,89,0.00,,---,0.00,VWS V14.01,2013-09-03 08:17:00,
2013-09-03 04:22:00,69.1,65.7,29.75,West,268,0.0,0.0,89,0.00,,---,0.00,VWS V14.01,2013-09-03 08:22:00,
2013-09-03 04:27:00,69.0,65.9,29.75,West,269,0.0,0.0,90,0.00,,---,0.00,VWS V14.01,2013-09-03 08:27:00,
2013-09-03 04:32:00,69.0,65.9,29.75,West,272,0.0,1.0,90,0.00,,---,0.00,VWS V14.01,2013-09-03 08:32:00,
2013-09-03 04:37:00,69.0,66.3,29.75,WNW,288,1.0,1.0,91,0.00,,---,0.00,VWS V14.01,2013-09-03 08:37:00,
2013-09-03 04:42:00,68.9,66.2,29.76,West,276,0.0,1.0,91,0.00,,---,0.00,VWS V14.01,2013-09-03 08:42:00,
2013-09-03 04:47:00,68.9,66.2,29.76,West,271,0.0,1.0,91,0.00,,---,0.00,VWS V14.01,2013-09-03 08:47:00,
2013-09-03 04:52:00,68.8,66.4,29.76,West,270,0.0,1.0,92,0.00,,---,0.00,VWS V14.01,2013-09-03 08:52:00,
2013-09-03 04:57:00,68.8,66.4,29.76,West,276,0.0,1.0,92,0.00,,---,0.00,VWS V14.01,2013-09-03 08:57:00,
2013-09-03 05:02:00,68.7,66.3,29.77,West,274,0.0,0.0,92,0.00,,---,0.00,VWS V14.01,2013-09-03 09:02:00,
2013-09-03 05:08:00,68.7,66.3,29.77,West,260,0.0,0.0,92,0.00,,---,0.00,VWS V14.01,2013-09-03 09:08:00,
2013-09-03 05:13:00,68.6,66.2,29.77,West,260,0.0,0.0,92,0.00,,---,0.00,VWS V14.01,2013-09-03 09:13:00,
2013-09-03 05:18:00,68.5,66.1,29.77,West,271,0.0,0.0,92,0.00,,---,0.00,VWS V14.01,2013-09-03 09:18:00,
2013-09-03 05:23:00,68.4,66.3,29.77,West,271,0.0,1.0,93,0.00,,---,0.00,VWS V14.01,2013-09-03 09:23:00,
2013-09-03 05:28:00,68.2,66.1,29.77,West,271,0.0,0.0,93,0.00,,---,0.00,VWS V14.01,2013-09-03 09:28:00,
2013-09-03 05:33:00,68.1,66.0,29.77,West,272,0.0,1.0,93,0.00,,---,0.00,VWS V14.01,2013-09-03 09:33:00,
2013-09-03 05:38:00,68.0,65.9,29.78,West,271,0.0,0.0,93,0.00,,---,0.00,VWS V14.01,2013-09-03 09:38:00,
2013-09-03 05:43:00,67.9,66.1,29.78,West,271,0.0,0.0,94,0.00,,---,0.00,VWS V14.01,2013-09-03 09:43:00,
2013-09-03 05:48:00,67.7,65.9,29.78,West,271,0.0,1.0,94,0.00,,---,0.00,VWS V14.01,2013-09-03 09:48:00,
2013-09-03 05:53:00,67.6,65.8,29.78,West,271,0.0,0.0,94,0.00,,---,0.00,VWS V14.01,2013-09-03 09:53:00,
2013-09-03 05:58:00,67.5,65.7,29.78,West,271,0.0,0.0,94,0.00,,---,0.00,VWS V14.01,2013-09-03 09:58:00,
2013-09-03 06:04:00,67.4,65.6,29.79,West,271,0.0,0.0,94,0.00,,---,0.00,VWS V14.01,2013-09-03 10:04:00,
2013-09-03 06:09:00,67.3,65.5,29.79,West,271,0.0,0.0,94,0.00,,---,0.00,VWS V14.01,2013-09-03 10:09:00,
2013-09-03 06:14:00,67.3,65.5,29.79,West,271,0.0,0.0,94,0.00,,---,0.00,VWS V14.01,2013-09-03 10:14:00,
2013-09-03 06:19:00,67.2,65.4,29.79,West,272,0.0,0.0,94,0.00,,---,0.00,VWS V14.01,2013-09-03 10:19:00,
2013-09-03 06:24:00,67.1,65.3,29.79,West,271,0.0,0.0,94,0.00,,---,0.00,VWS V14.01,2013-09-03 10:24:00,
2013-09-03 06:29:00,67.0,65.2,29.80,West,271,0.0,0.0,94,0.00,,---,0.00,VWS V14.01,2013-09-03 10:29:00,
2013-09-03 06:34:00,67.0,65.2,29.80,West,271,0.0,1.0,94,0.00,,---,0.00,VWS V14.01,2013-09-03 10:34:00,
2013-09-03 06:39:00,66.9,65.1,29.80,WNW,283,0.0,1.0,94,0.00,,---,0.00,VWS V14.01,2013-09-03 10:39:00,
2013-09-03 06:44:00,66.9,65.1,29.80,WNW,283,0.0,0.0,94,0.00,,---,0.00,VWS V14.01,2013-09-03 10:44:00,
2013-09-03 06:49:00,67.0,65.2,29.80,WNW,283,0.0,0.0,94,0.00,,---,0.00,VWS V14.01,2013-09-03 10:49:00,
2013-09-03 06:54:00,66.9,65.1,29.80,WNW,283,0.0,0.0,94,0.00,,---,0.00,VWS V14.01,2013-09-03 10:54:00,
2013-09-03 06:59:00,66.9,65.1,29.80,SSW,211,0.0,0.0,94,0.00,,---,0.00,VWS V14.01,2013-09-03 10:59:00,
2013-09-03 07:05:00,67.0,64.9,29.81,SSW,207,0.0,0.0,93,0.00,,---,0.00,VWS V14.01,2013-09-03 11:05:00,
2013-09-03 07:10:00,67.0,64.9,29.81,SSW,207,0.0,0.0,93,0.00,,---,0.00,VWS V14.01,2013-09-03 11:10:00,
2013-09-03 07:15:00,67.0,64.6,29.81,SSW,207,0.0,0.0,92,0.00,,---,0.00,VWS V14.01,2013-09-03 11:15:00,
2013-09-03 07:20:00,67.1,64.7,29.82,SSW,207,0.0,0.0,92,0.00,,---,0.00,VWS V14.01,2013-09-03 11:20:00,
2013-09-03 07:25:00,67.1,64.7,29.82,SSW,207,0.0,0.0,92,0.00,,---,0.00,VWS V14.01,2013-09-03 11:25:00,
2013-09-03 07:30:00,67.0,64.3,29.82,SSW,207,0.0,0.0,91,0.00,,---,0.00,VWS V14.01,2013-09-03 11:30:00,
2013-09-03 07:35:00,66.9,64.2,29.82,SSW,207,0.0,0.0,91,0.00,,---,0.00,VWS V14.01,2013-09-03 11:35:00,
2013-09-03 07:40:00,66.8,64.1,29.82,SSW,206,0.0,0.0,91,0.00,,---,0.00,VWS V14.01,2013-09-03 11:40:00,
2013-09-03 07:45:00,66.7,64.3,29.82,SSW,207,0.0,0.0,92,0.00,,---,0.00,VWS V14.01,2013-09-03 11:45:00,
2013-09-03 07:50:00,66.5,63.8,29.82,SSW,207,0.0,0.0,91,0.00,,---,0.00,VWS V14.01,2013-09-03 11:50:00,
2013-09-03 07:55:00,66.4,63.7,29.83,SSW,207,0.0,0.0,91,0.00,,---,0.00,VWS V14.01,2013-09-03 11:55:00,
2013-09-03 08:00:00,66.3,63.9,29.83,SSW,207,0.0,0.0,92,0.00,,---,0.00,VWS V14.01,2013-09-03 12:00:00,
2013-09-03 08:05:00,66.2,63.8,29.83,SSW,207,0.0,0.0,92,0.00,,---,0.00,VWS V14.01,2013-09-03 12:05:00,
2013-09-03 08:10:00,66.2,63.8,29.83,SSW,205,0.0,0.0,92,0.00,,---,0.00,VWS V14.01,2013-09-03 12:10:00,
2013-09-03 08:15:00,66.2,63.8,29.83,SSW,205,0.0,0.0,92,0.00,,---,0.00,VWS V14.01,2013-09-03 12:15:00,
2013-09-03 08:21:00,66.3,63.9,29.83,SSW,206,0.0,0.0,92,0.00,,---,0.00,VWS V14.01,2013-09-03 12:21:00,
2013-09-03 08:26:00,66.4,64.0,29.83,SSW,204,0.0,0.0,92,0.00,,---,0.00,VWS V14.01,2013-09-03 12:26:00,
2013-09-03 08:31:00,66.6,63.9,29.84,SSW,204,0.0,0.0,91,0.00,,---,0.00,VWS V14.01,2013-09-03 12:31:00,
2013-09-03 08:36:00,66.8,64.1,29.84,SSW,204,0.0,0.0,91,0.00,,---,0.00,VWS V14.01,2013-09-03 12:36:00,
2013-09-03 08:41:00,67.1,64.4,29.84,SSW,203,0.0,0.0,91,0.00,,---,0.00,VWS V14.01,2013-09-03 12:41:00,
2013-09-03 08:46:00,67.4,64.4,29.84,SSW,204,0.0,0.0,90,0.00,,---,0.00,VWS V14.01,2013-09-03 12:46:00,
2013-09-03 08:51:00,67.7,64.7,29.84,SSW,204,0.0,0.0,90,0.00,,---,0.00,VWS V14.01,2013-09-03 12:51:00,
2013-09-03 08:56:00,68.0,64.3,29.84,WSW,239,0.0,0.0,88,0.00,,---,0.00,VWS V14.01,2013-09-03 12:56:00,
2013-09-03 09:01:00,68.2,64.5,29.84,WSW,239,0.0,0.0,88,0.00,,---,0.00,VWS V14.01,2013-09-03 13:01:00,
2013-09-03 09:06:00,68.4,64.7,29.84,WSW,239,0.0,0.0,88,0.00,,---,0.00,VWS V14.01,2013-09-03 13:06:00,
2013-09-03 09:11:00,68.5,64.8,29.84,WSW,239,0.0,0.0,88,0.00,,---,0.00,VWS V14.01,2013-09-03 13:11:00,
2013-09-03 09:16:00,68.7,65.0,29.84,WSW,239,0.0,0.0,88,0.00,,---,0.00,VWS V14.01,2013-09-03 13:16:00,
2013-09-03 09:22:00,68.9,64.9,29.84,WSW,239,0.0,0.0,87,0.00,,---,0.00,VWS V14.01,2013-09-03 13:22:00,
2013-09-03 09:27:00,69.0,65.0,29.85,WSW,239,0.0,0.0,87,0.00,,---,0.00,VWS V14.01,2013-09-03 13:27:00,
2013-09-03 09:32:00,69.1,64.7,29.85,WSW,239,0.0,0.0,86,0.00,,---,0.00,VWS V14.01,2013-09-03 13:32:00,
2013-09-03 09:37:00,69.2,64.8,29.85,WSW,239,0.0,0.0,86,0.00,,---,0.00,VWS V14.01,2013-09-03 13:37:00,
2013-09-03 09:42:00,69.4,65.0,29.85,WSW,239,0.0,0.0,86,0.00,,---,0.00,VWS V14.01,2013-09-03 13:42:00,
2013-09-03 09:47:00,69.6,64.9,29.85,WSW,239,0.0,0.0,85,0.00,,---,0.00,VWS V14.01,2013-09-03 13:47:00,
2013-09-03 09:52:00,69.9,64.5,29.85,WSW,242,0.0,0.0,83,0.00,,---,0.00,VWS V14.01,2013-09-03 13:52:00,
2013-09-03 09:57:00,70.2,64.4,29.85,WSW,246,0.0,0.0,82,0.00,,---,0.00,VWS V14.01,2013-09-03 13:57:00,
2013-09-03 10:02:00,70.6,65.5,29.85,WSW,246,0.0,0.0,84,0.00,,---,0.00,VWS V14.01,2013-09-03 14:02:00,
2013-09-03 10:07:00,70.7,64.6,29.85,NW,313,0.0,0.0,81,0.00,,---,0.00,VWS V14.01,2013-09-03 14:07:00,
2013-09-03 10:12:00,71.1,65.7,29.85,NW,315,0.0,0.0,83,0.00,,---,0.00,VWS V14.01,2013-09-03 14:12:00,
2013-09-03 10:17:00,71.3,65.5,29.85,NNW,345,0.0,0.0,82,0.00,,---,0.00,VWS V14.01,2013-09-03 14:17:00,
2013-09-03 10:22:00,71.4,65.6,29.85,NNW,345,0.0,0.0,82,0.00,,---,0.00,VWS V14.01,2013-09-03 14:22:00,
2013-09-03 10:27:00,71.6,65.5,29.85,SE,142,0.0,0.0,81,0.00,,---,0.00,VWS V14.01,2013-09-03 14:27:00,
2013-09-03 10:33:00,71.8,66.4,29.85,ESE,112,0.0,0.0,83,0.00,,---,0.00,VWS V14.01,2013-09-03 14:33:00,
2013-09-03 10:38:00,71.8,65.3,29.85,SSE,166,0.0,0.0,80,0.00,,---,0.00,VWS V14.01,2013-09-03 14:38:00,
2013-09-03 10:43:00,71.9,65.4,29.85,WSW,238,0.0,0.0,80,0.00,,---,0.00,VWS V14.01,2013-09-03 14:43:00,
2013-09-03 10:48:00,71.7,64.5,29.85,SSW,208,0.0,0.0,78,0.00,,---,0.00,VWS V14.01,2013-09-03 14:48:00,
2013-09-03 10:53:00,71.5,65.0,29.85,WSW,238,0.0,0.0,80,0.00,,---,0.00,VWS V14.01,2013-09-03 14:53:00,
2013-09-03 10:58:00,71.3,64.8,29.85,SSE,150,0.0,0.0,80,0.00,,---,0.00,VWS V14.01,2013-09-03 14:58:00,
2013-09-03 11:03:00,71.4,64.9,29.85,SSE,152,0.0,0.0,80,0.00,,---,0.00,VWS V14.01,2013-09-03 15:03:00,
2013-09-03 11:08:00,71.6,64.0,29.85,WNW,293,0.0,0.0,77,0.00,,---,0.00,VWS V14.01,2013-09-03 15:08:00,
2013-09-03 11:13:00,72.1,64.5,29.85,SW,221,0.0,0.0,77,0.00,,---,0.00,VWS V14.01,2013-09-03 15:13:00,
2013-09-03 11:18:00,72.7,65.1,29.85,WNW,283,0.0,0.0,77,0.00,,---,0.00,VWS V14.01,2013-09-03 15:18:00,
2013-09-03 11:23:00,73.2,65.6,29.85,WNW,295,0.0,0.0,77,0.00,,---,0.00,VWS V14.01,2013-09-03 15:23:00,
2013-09-03 11:28:00,73.9,65.5,29.85,SW,215,0.0,0.0,75,0.00,,---,0.00,VWS V14.01,2013-09-03 15:28:00,
2013-09-03 11:33:00,74.7,65.9,29.85,SSE,160,0.0,1.0,74,0.00,,---,0.00,VWS V14.01,2013-09-03 15:33:00,
2013-09-03 11:38:00,75.1,65.5,29.85,North,352,0.0,0.0,72,0.00,,---,0.00,VWS V14.01,2013-09-03 15:38:00,
2013-09-03 11:44:00,75.1,64.7,29.85,ESE,108,0.0,0.0,70,0.00,,---,0.00,VWS V14.01,2013-09-03 15:44:00,
2013-09-03 11:49:00,74.7,65.5,29.85,ESE,104,0.0,0.0,73,0.00,,---,0.00,VWS V14.01,2013-09-03 15:49:00,
2013-09-03 11:54:00,74.2,64.6,29.85,ESE,104,0.0,0.0,72,0.00,,---,0.00,VWS V14.01,2013-09-03 15:54:00,
2013-09-03 11:59:00,74.1,64.5,29.85,SSW,195,0.0,0.0,72,0.00,,---,0.00,VWS V14.01,2013-09-03 15:59:00,
2013-09-03 12:04:00,74.7,65.5,29.85,SW,226,1.0,1.0,73,0.00,,---,0.00,VWS V14.01,2013-09-03 16:04:00,
2013-09-03 12:09:00,75.5,66.6,29.85,West,280,0.0,0.0,74,0.00,,---,0.00,VWS V14.01,2013-09-03 16:09:00,
2013-09-03 12:14:00,76.5,65.2,29.85,NW,307,0.0,0.0,68,0.00,,---,0.00,VWS V14.01,2013-09-03 16:14:00,
2013-09-03 12:19:00,77.5,65.7,29.85,East,94,0.0,0.0,67,0.00,,---,0.00,VWS V14.01,2013-09-03 16:19:00,
2013-09-03 12:24:00,78.4,66.1,29.85,East,82,0.0,0.0,66,0.00,,---,0.00,VWS V14.01,2013-09-03 16:24:00,
2013-09-03 12:29:00,77.9,64.3,29.85,NNW,336,0.0,0.0,63,0.00,,---,0.00,VWS V14.01,2013-09-03 16:29:00,
2013-09-03 12:34:00,78.1,65.4,29.84,NNW,338,0.0,0.0,65,0.00,,---,0.00,VWS V14.01,2013-09-03 16:34:00,
2013-09-03 12:39:00,78.4,65.2,29.84,SSW,204,0.0,0.0,64,0.00,,---,0.00,VWS V14.01,2013-09-03 16:39:00,
2013-09-03 12:44:00,78.9,65.2,29.84,ENE,63,0.0,0.0,63,0.00,,---,0.00,VWS V14.01,2013-09-03 16:44:00,
2013-09-03 12:49:00,79.1,64.5,29.84,NNE,26,0.0,0.0,61,0.00,,---,0.00,VWS V14.01,2013-09-03 16:49:00,
2013-09-03 12:54:00,79.5,65.8,29.84,SSE,152,0.0,0.0,63,0.00,,---,0.00,VWS V14.01,2013-09-03 16:54:00,
2013-09-03 12:59:00,80.0,66.3,29.84,NNW,330,0.0,0.0,63,0.00,,---,0.00,VWS V14.01,2013-09-03 16:59:00,
2013-09-03 13:04:00,80.4,66.2,29.84,NNW,338,0.0,0.0,62,0.00,,---,0.00,VWS V14.01,2013-09-03 17:04:00,
2013-09-03 13:09:00,80.4,63.3,29.84,SSE,162,0.0,1.0,56,0.00,,---,0.00,VWS V14.01,2013-09-03 17:09:00,
2013-09-03 13:14:00,80.3,66.1,29.84,NNE,18,0.0,1.0,62,0.00,,---,0.00,VWS V14.01,2013-09-03 17:14:00,
2013-09-03 13:19:00,79.9,64.8,29.84,South,170,0.0,0.0,60,0.00,,---,0.00,VWS V14.01,2013-09-03 17:19:00,
2013-09-03 13:25:00,80.1,65.0,29.84,East,90,0.0,0.0,60,0.00,,---,0.00,VWS V14.01,2013-09-03 17:25:00,
2013-09-03 13:30:00,80.4,64.8,29.84,SE,144,0.0,0.0,59,0.00,,---,0.00,VWS V14.01,2013-09-03 17:30:00,
2013-09-03 13:35:00,80.3,63.7,29.84,West,269,1.0,2.0,57,0.00,,---,0.00,VWS V14.01,2013-09-03 17:35:00,
2013-09-03 13:40:00,79.6,62.5,29.84,WNW,288,0.0,0.0,56,0.00,,---,0.00,VWS V14.01,2013-09-03 17:40:00,
2013-09-03 13:45:00,79.8,64.2,29.84,North,4,0.0,0.0,59,0.00,,---,0.00,VWS V14.01,2013-09-03 17:45:00,
2013-09-03 13:50:00,80.4,66.2,29.84,West,276,0.0,0.0,62,0.00,,---,0.00,VWS V14.01,2013-09-03 17:50:00,
2013-09-03 13:55:00,80.1,63.5,29.84,ESE,104,0.0,1.0,57,0.00,,---,0.00,VWS V14.01,2013-09-03 17:55:00,
2013-09-03 14:00:00,79.9,64.8,29.84,ENE,73,0.0,1.0,60,0.00,,---,0.00,VWS V14.01,2013-09-03 18:00:00,
2013-09-03 14:05:00,79.9,64.3,29.84,East,99,0.0,0.0,59,0.00,,---,0.00,VWS V14.01,2013-09-03 18:05:00,
2013-09-03 14:10:00,79.7,62.1,29.84,NE,34,0.0,1.0,55,0.00,,---,0.00,VWS V14.01,2013-09-03 18:10:00,
2013-09-03 14:15:00,79.6,64.5,29.84,North,4,0.0,0.0,60,0.00,,---,0.00,VWS V14.01,2013-09-03 18:15:00,
2013-09-03 14:20:00,79.5,64.4,29.84,SE,132,0.0,0.0,60,0.00,,---,0.00,VWS V14.01,2013-09-03 18:20:00,
2013-09-03 14:25:00,79.3,63.7,29.83,SSW,195,0.0,0.0,59,0.00,,---,0.00,VWS V14.01,2013-09-03 18:25:00,
2013-09-03 14:30:00,78.8,62.3,29.83,WSW,257,0.0,0.0,57,0.00,,---,0.00,VWS V14.01,2013-09-03 18:30:00,
2013-09-03 14:35:00,78.3,61.8,29.83,NE,56,0.0,0.0,57,0.00,,---,0.00,VWS V14.01,2013-09-03 18:35:00,
2013-09-03 14:41:00,78.1,63.6,29.83,SSW,212,0.0,0.0,61,0.00,,---,0.00,VWS V14.01,2013-09-03 18:41:00,
2013-09-03 14:46:00,78.0,62.0,29.83,NW,325,0.0,0.0,58,0.00,,---,0.00,VWS V14.01,2013-09-03 18:46:00,
2013-09-03 14:51:00,77.8,61.4,29.83,SW,219,0.0,0.0,57,0.00,,---,0.00,VWS V14.01,2013-09-03 18:51:00,
2013-09-03 14:56:00,77.5,62.5,29.83,East,81,0.0,0.0,60,0.00,,---,0.00,VWS V14.01,2013-09-03 18:56:00,
2013-09-03 15:01:00,77.3,62.8,29.83,East,82,0.0,0.0,61,0.00,,---,0.00,VWS V14.01,2013-09-03 19:01:00,
2013-09-03 15:06:00,77.3,61.9,29.83,NNW,348,0.0,0.0,59,0.00,,---,0.00,VWS V14.01,2013-09-03 19:06:00,
2013-09-03 15:11:00,77.2,63.6,29.83,East,86,0.0,0.0,63,0.00,,---,0.00,VWS V14.01,2013-09-03 19:11:00,
2013-09-03 15:16:00,76.9,62.9,29.83,WSW,257,0.0,0.0,62,0.00,,---,0.00,VWS V14.01,2013-09-03 19:16:00,
2013-09-03 15:21:00,76.5,63.0,29.82,West,259,0.0,1.0,63,0.00,,---,0.00,VWS V14.01,2013-09-03 19:21:00,
2013-09-03 15:26:00,76.4,62.4,29.82,West,259,0.0,0.0,62,0.00,,---,0.00,VWS V14.01,2013-09-03 19:26:00,
2013-09-03 15:31:00,76.4,63.8,29.82,SSW,195,0.0,0.0,65,0.00,,---,0.00,VWS V14.01,2013-09-03 19:31:00,
2013-09-03 15:36:00,76.4,62.4,29.82,SW,214,0.0,0.0,62,0.00,,---,0.00,VWS V14.01,2013-09-03 19:36:00,
2013-09-03 15:42:00,76.4,62.0,29.82,SSW,194,0.0,0.0,61,0.00,,---,0.00,VWS V14.01,2013-09-03 19:42:00,
2013-09-03 15:47:00,76.3,63.7,29.82,NE,43,0.0,0.0,65,0.00,,---,0.00,VWS V14.01,2013-09-03 19:47:00,
2013-09-03 15:52:00,76.2,63.6,29.82,SSW,195,0.0,1.0,65,0.00,,---,0.00,VWS V14.01,2013-09-03 19:52:00,
2013-09-03 15:57:00,76.0,62.5,29.82,SE,142,0.0,0.0,63,0.00,,---,0.00,VWS V14.01,2013-09-03 19:57:00,
2013-09-03 16:02:00,75.9,62.4,29.82,SE,143,0.0,0.0,63,0.00,,---,0.00,VWS V14.01,2013-09-03 20:02:00,
2013-09-03 16:07:00,75.9,63.7,29.82,North,356,0.0,0.0,66,0.00,,---,0.00,VWS V14.01,2013-09-03 20:07:00,
2013-09-03 16:12:00,75.8,62.8,29.82,SE,126,0.0,0.0,64,0.00,,---,0.00,VWS V14.01,2013-09-03 20:12:00,
2013-09-03 16:17:00,75.6,60.3,29.83,SSW,209,0.0,1.0,59,0.00,,---,0.00,VWS V14.01,2013-09-03 20:17:00,
2013-09-03 16:22:00,75.7,62.7,29.82,WNW,301,0.0,1.0,64,0.00,,---,0.00,VWS V14.01,2013-09-03 20:22:00,
2013-09-03 16:27:00,75.8,62.3,29.82,ENE,62,0.0,0.0,63,0.00,,---,0.00,VWS V14.01,2013-09-03 20:27:00,
2013-09-03 16:32:00,75.7,62.7,29.82,WNW,293,0.0,0.0,64,0.00,,---,0.00,VWS V14.01,2013-09-03 20:32:00,
2013-09-03 16:37:00,75.8,60.0,29.82,West,279,0.0,1.0,58,0.00,,---,0.00,VWS V14.01,2013-09-03 20:37:00,
2013-09-03 16:42:00,75.7,59.4,29.82,SSW,203,0.0,0.0,57,0.00,,---,0.00,VWS V14.01,2013-09-03 20:42:00,
2013-09-03 16:47:00,75.7,61.3,29.82,SSW,198,0.0,0.0,61,0.00,,---,0.00,VWS V14.01,2013-09-03 20:47:00,
2013-09-03 16:53:00,75.6,60.8,29.82,WSW,243,0.0,0.0,60,0.00,,---,0.00,VWS V14.01,2013-09-03 20:53:00,
2013-09-03 16:58:00,75.5,63.4,29.83,West,270,0.0,0.0,66,0.00,,---,0.00,VWS V14.01,2013-09-03 20:58:00,
2013-09-03 17:03:00,75.5,62.5,29.83,West,271,0.0,0.0,64,0.00,,---,0.00,VWS V14.01,2013-09-03 21:03:00,
2013-09-03 17:08:00,75.5,63.4,29.83,West,271,0.0,0.0,66,0.00,,---,0.00,VWS V14.01,2013-09-03 21:08:00,
2013-09-03 17:13:00,75.4,61.0,29.83,SW,215,0.0,1.0,61,0.00,,---,0.00,VWS V14.01,2013-09-03 21:13:00,
2013-09-03 17:18:00,75.6,63.9,29.83,SW,215,0.0,0.0,67,0.00,,---,0.00,VWS V14.01,2013-09-03 21:18:00,
2013-09-03 17:23:00,75.6,61.2,29.83,SSE,156,0.0,0.0,61,0.00,,---,0.00,VWS V14.01,2013-09-03 21:23:00,
2013-09-03 17:28:00,75.5,61.1,29.83,SSE,159,0.0,0.0,61,0.00,,---,0.00,VWS V14.01,2013-09-03 21:28:00,
2013-09-03 17:33:00,75.4,61.5,29.83,SSE,156,0.0,0.0,62,0.00,,---,0.00,VWS V14.01,2013-09-03 21:33:00,
2013-09-03 17:39:00,75.2,60.4,29.83,SSE,156,0.0,0.0,60,0.00,,---,0.00,VWS V14.01,2013-09-03 21:39:00,
2013-09-03 17:44:00,74.7,59.4,29.83,SSE,156,0.0,0.0,59,0.00,,---,0.00,VWS V14.01,2013-09-03 21:44:00,
2013-09-03 17:49:00,74.1,59.8,29.84,SSE,156,0.0,0.0,61,0.00,,---,0.00,VWS V14.01,2013-09-03 21:49:00,
2013-09-03 17:54:00,73.5,59.2,29.84,WSW,249,0.0,0.0,61,0.00,,---,0.00,VWS V14.01,2013-09-03 21:54:00,
2013-09-03 17:59:00,73.2,59.9,29.84,WSW,250,0.0,0.0,63,0.00,,---,0.00,VWS V14.01,2013-09-03 21:59:00,
2013-09-03 18:04:00,72.9,60.5,29.84,WSW,250,0.0,0.0,65,0.00,,---,0.00,VWS V14.01,2013-09-03 22:04:00,
2013-09-03 18:09:00,72.7,58.9,29.85,WSW,245,0.0,0.0,62,0.00,,---,0.00,VWS V14.01,2013-09-03 22:09:00,
2013-09-03 18:14:00,72.6,59.7,29.85,WSW,245,0.0,0.0,64,0.00,,---,0.00,VWS V14.01,2013-09-03 22:14:00,
2013-09-03 18:19:00,72.3,59.9,29.85,WSW,243,0.0,0.0,65,0.00,,---,0.00,VWS V14.01,2013-09-03 22:19:00,
2013-09-03 18:24:00,72.1,59.7,29.86,WNW,295,0.0,0.0,65,0.00,,---,0.00,VWS V14.01,2013-09-03 22:24:00,
2013-09-03 18:29:00,72.0,59.2,29.86,WNW,295,0.0,0.0,64,0.00,,---,0.00,VWS V14.01,2013-09-03 22:29:00,
2013-09-03 18:34:00,71.7,59.3,29.86,SSW,198,0.0,1.0,65,0.00,,---,0.00,VWS V14.01,2013-09-03 22:34:00,
2013-09-03 18:40:00,71.4,58.6,29.86,SSW,197,0.0,0.0,64,0.00,,---,0.00,VWS V14.01,2013-09-03 22:40:00,
2013-09-03 18:45:00,71.3,58.9,29.86,SSW,200,0.0,0.0,65,0.00,,---,0.00,VWS V14.01,2013-09-03 22:45:00,
2013-09-03 18:50:00,71.1,59.2,29.86,SSW,200,0.0,0.0,66,0.00,,---,0.00,VWS V14.01,2013-09-03 22:50:00,
2013-09-03 18:55:00,70.9,58.6,29.86,SSW,202,0.0,0.0,65,0.00,,---,0.00,VWS V14.01,2013-09-03 22:55:00,
2013-09-03 19:00:00,70.7,58.8,29.87,SSW,201,0.0,0.0,66,0.00,,---,0.00,VWS V14.01,2013-09-03 23:00:00,
2013-09-03 19:05:00,70.3,59.2,29.87,SSW,201,0.0,0.0,68,0.00,,---,0.00,VWS V14.01,2013-09-03 23:05:00,
2013-09-03 19:10:00,70.0,59.4,29.87,SSW,201,0.0,0.0,69,0.00,,---,0.00,VWS V14.01,2013-09-03 23:10:00,
2013-09-03 19:15:00,69.7,59.1,29.87,SSW,202,0.0,0.0,69,0.00,,---,0.00,VWS V14.01,2013-09-03 23:15:00,
2013-09-03 19:20:00,69.4,59.6,29.88,SSW,201,0.0,0.0,71,0.00,,---,0.00,VWS V14.01,2013-09-03 23:20:00,
2013-09-03 19:25:00,69.1,59.7,29.88,SSW,201,0.0,0.0,72,0.00,,---,0.00,VWS V14.01,2013-09-03 23:25:00,
2013-09-03 19:30:00,68.8,59.0,29.89,SSW,201,0.0,0.0,71,0.00,,---,0.00,VWS V14.01,2013-09-03 23:30:00,
2013-09-03 19:36:00,68.4,58.2,29.89,SSW,201,0.0,0.0,70,0.00,,---,0.00,VWS V14.01,2013-09-03 23:36:00,
2013-09-03 19:41:00,68.3,58.2,29.89,WSW,242,0.0,0.0,70,0.00,,---,0.00,VWS V14.01,2013-09-03 23:41:00,
2013-09-03 19:46:00,68.3,58.9,29.89,West,280,0.0,0.0,72,0.00,,---,0.00,VWS V14.01,2013-09-03 23:46:00,
2013-09-03 19:51:00,68.1,58.7,29.89,West,281,0.0,0.0,72,0.00,,---,0.00,VWS V14.01,2013-09-03 23:51:00,
2013-09-03 19:56:00,67.9,58.2,29.90,West,281,0.0,0.0,71,0.00,,---,0.00,VWS V14.01,2013-09-03 23:56:00,
2013-09-03 20:01:00,67.7,58.0,29.90,West,281,0.0,0.0,71,0.00,,---,0.00,VWS V14.01,2013-09-04 00:01:00,
2013-09-03 20:06:00,67.5,58.2,29.91,West,281,0.0,0.0,72,0.00,,---,0.00,VWS V14.01,2013-09-04 00:06:00,
2013-09-03 20:11:00,67.4,58.1,29.91,West,281,0.0,0.0,72,0.00,,---,0.00,VWS V14.01,2013-09-04 00:11:00,
2013-09-03 20:16:00,67.1,57.4,29.91,WSW,252,0.0,0.0,71,0.00,,---,0.00,VWS V14.01,2013-09-04 00:16:00,
2013-09-03 20:21:00,67.0,58.1,29.91,West,270,0.0,0.0,73,0.00,,---,0.00,VWS V14.01,2013-09-04 00:21:00,
2013-09-03 20:26:00,66.9,58.3,29.91,West,266,0.0,0.0,74,0.00,,---,0.00,VWS V14.01,2013-09-04 00:26:00,
2013-09-03 20:31:00,66.7,57.4,29.91,West,266,0.0,0.0,72,0.00,,---,0.00,VWS V14.01,2013-09-04 00:31:00,
2013-09-03 20:36:00,66.6,57.7,29.92,West,262,0.0,0.0,73,0.00,,---,0.00,VWS V14.01,2013-09-04 00:36:00,
2013-09-03 20:42:00,66.4,57.9,29.92,West,262,0.0,0.0,74,0.00,,---,0.00,VWS V14.01,2013-09-04 00:42:00,
2013-09-03 20:47:00,66.2,57.7,29.92,West,262,0.0,0.0,74,0.00,,---,0.00,VWS V14.01,2013-09-04 00:47:00,
2013-09-03 20:52:00,66.0,57.5,29.92,WSW,252,0.0,0.0,74,0.00,,---,0.00,VWS V14.01,2013-09-04 00:52:00,
2013-09-03 20:57:00,66.0,57.5,29.92,West,266,0.0,0.0,74,0.00,,---,0.00,VWS V14.01,2013-09-04 00:57:00,
2013-09-03 21:02:00,65.9,58.1,29.93,West,265,0.0,0.0,76,0.00,,---,0.00,VWS V14.01,2013-09-04 01:02:00,
2013-09-03 21:07:00,65.8,57.7,29.93,West,266,0.0,0.0,75,0.00,,---,0.00,VWS V14.01,2013-09-04 01:07:00,
2013-09-03 21:12:00,65.8,57.7,29.93,West,273,0.0,0.0,75,0.00,,---,0.00,VWS V14.01,2013-09-04 01:12:00,
2013-09-03 21:17:00,65.7,57.2,29.93,West,273,0.0,0.0,74,0.00,,---,0.00,VWS V14.01,2013-09-04 01:17:00,
2013-09-03 21:22:00,65.6,57.8,29.93,WSW,257,0.0,0.0,76,0.00,,---,0.00,VWS V14.01,2013-09-04 01:22:00,
2013-09-03 21:27:00,65.5,57.4,29.94,West,269,0.0,1.0,75,0.00,,---,0.00,VWS V14.01,2013-09-04 01:27:00,
2013-09-03 21:32:00,65.3,57.2,29.94,WSW,257,0.0,0.0,75,0.00,,---,0.00,VWS V14.01,2013-09-04 01:32:00,
2013-09-03 21:37:00,65.3,57.5,29.94,West,277,0.0,0.0,76,0.00,,---,0.00,VWS V14.01,2013-09-04 01:37:00,
2013-09-03 21:42:00,65.2,57.1,29.94,WNW,288,0.0,0.0,75,0.00,,---,0.00,VWS V14.01,2013-09-04 01:42:00,
2013-09-03 21:47:00,65.2,57.1,29.94,WNW,282,1.0,1.0,75,0.00,,---,0.00,VWS V14.01,2013-09-04 01:47:00,
2013-09-03 21:52:00,65.1,57.0,29.94,WNW,294,1.0,1.0,75,0.00,,---,0.00,VWS V14.01,2013-09-04 01:52:00,
2013-09-03 21:57:00,65.0,57.6,29.94,WNW,298,0.0,1.0,77,0.00,,---,0.00,VWS V14.01,2013-09-04 01:57:00,
2013-09-03 22:02:00,65.0,56.9,29.94,West,275,1.0,1.0,75,0.00,,---,0.00,VWS V14.01,2013-09-04 02:02:00,
2013-09-03 22:07:00,64.9,57.2,29.94,SW,229,0.0,2.0,76,0.00,,---,0.00,VWS V14.01,2013-09-04 02:07:00,
2013-09-03 22:13:00,64.9,57.2,29.94,West,274,0.0,0.0,76,0.00,,---,0.00,VWS V14.01,2013-09-04 02:13:00,
2013-09-03 22:18:00,64.7,57.3,29.94,West,274,0.0,0.0,77,0.00,,---,0.00,VWS V14.01,2013-09-04 02:18:00,
2013-09-03 22:23:00,64.5,56.8,29.95,SSW,201,0.0,0.0,76,0.00,,---,0.00,VWS V14.01,2013-09-04 02:23:00,
2013-09-03 22:28:00,64.5,56.4,29.95,WSW,253,0.0,0.0,75,0.00,,---,0.00,VWS V14.01,2013-09-04 02:28:00,
2013-09-03 22:33:00,64.3,56.6,29.95,WSW,240,0.0,0.0,76,0.00,,---,0.00,VWS V14.01,2013-09-04 02:33:00,
2013-09-03 22:38:00,64.2,56.8,29.95,West,270,0.0,0.0,77,0.00,,---,0.00,VWS V14.01,2013-09-04 02:38:00,
2013-09-03 22:43:00,64.0,57.0,29.95,West,274,0.0,1.0,78,0.00,,---,0.00,VWS V14.01,2013-09-04 02:43:00,
2013-09-03 22:48:00,63.9,56.6,29.95,WSW,257,0.0,1.0,77,0.00,,---,0.00,VWS V14.01,2013-09-04 02:48:00,
2013-09-03 22:53:00,63.7,56.4,29.95,WSW,252,0.0,1.0,77,0.00,,---,0.00,VWS V14.01,2013-09-04 02:53:00,
2013-09-03 22:58:00,63.6,56.6,29.95,West,270,0.0,0.0,78,0.00,,---,0.00,VWS V14.01,2013-09-04 02:58:00,
2013-09-03 23:03:00,63.4,56.4,29.95,WSW,245,0.0,0.0,78,0.00,,---,0.00,VWS V14.01,2013-09-04 03:03:00,
2013-09-03 23:08:00,63.2,56.2,29.96,WSW,245,0.0,0.0,78,0.00,,---,0.00,VWS V14.01,2013-09-04 03:08:00,
2013-09-03 23:13:00,63.0,56.0,29.96,WSW,245,0.0,0.0,78,0.00,,---,0.00,VWS V14.01,2013-09-04 03:13:00,
2013-09-03 23:18:00,62.8,55.8,29.96,WSW,238,0.0,1.0,78,0.00,,---,0.00,VWS V14.01,2013-09-04 03:18:00,
2013-09-03 23:23:00,62.7,56.1,29.96,West,277,0.0,1.0,79,0.00,,---,0.00,VWS V14.01,2013-09-04 03:23:00,
2013-09-03 23:28:00,62.7,56.1,29.95,West,273,0.0,1.0,79,0.00,,---,0.00,VWS V14.01,2013-09-04 03:28:00,
2013-09-03 23:33:00,62.6,56.0,29.95,SW,224,0.0,0.0,79,0.00,,---,0.00,VWS V14.01,2013-09-04 03:33:00,
2013-09-03 23:38:00,62.5,55.9,29.96,South,173,0.0,0.0,79,0.00,,---,0.00,VWS V14.01,2013-09-04 03:38:00,
2013-09-03 23:43:00,62.3,55.7,29.96,SW,228,0.0,0.0,79,0.00,,---,0.00,VWS V14.01,2013-09-04 03:43:00,
2013-09-03 23:48:00,62.2,55.6,29.96,WSW,252,0.0,0.0,79,0.00,,---,0.00,VWS V14.01,2013-09-04 03:48:00,
2013-09-03 23:53:00,62.0,55.4,29.96,WSW,252,0.0,0.0,79,0.00,,---,0.00,VWS V14.01,2013-09-04 03:53:00,
2013-09-03 23:58:00,61.9,55.7,29.96,West,266,0.0,0.0,80,0.00,,---,0.00,VWS V14.01,2013-09-04 03:58:00,